SCP
0 0 0 0 0 0 0 0 0 0 0 0 0 0 0 0 0 0 0 0 0 0 0 0 0 0 0 0 0 0 0 0 0 0 0 0 0 0 0 0 0 0 0
0 0 0 0 0 0 0 0 0 0 0 0 0 0 0 0 0 0 0 0 0 0 0 0 0 0 0 0 0 0 0 0 0 0 0 0 0 0 0 0 0 0 0
0 0 0 0 0 0 0 0 0 0 0 0 0 0 0 0 0 0 0 0 0 0 0 0 0 0 0 0 0 0 0 0 0 0 0 0 0 0 0 0 0 0 0
0 0 0 0 0 0 0 0 0 0 0 0 0 0 0 0 0 0 0 0 0 0 0 0 0 0 0 0 0 0 0 0 0 0 0 0 0 0 0 0 0 0 0
0 0 0 0 0 0 0 0 0 0 0 0 0 0 0 0 0 0 0 0 0 0 0 0 0 0 0 0 0 0 0 0 0 0 0 0 0 0 0 0 0 0 0
0 0 0 0 0 0 0 0 0 0 0 0 0 0 0 0 0 0 0 0 0 0 0 0 0 0 0 0 0 0 0 0 0 0 0 0 0 0 0 0 0 0 0
0 0 0 0 0 0 0 0 0 0 0 0 0 0 0 0 0 0 0 0 0 0 0 0 0 0 0 0 0 0 0 0 0 0 0 0 0 0 0 0 0 0 0
0 0 0 0 0 0 0 0 0 0 0 0 0 0 0 0 0 0 0 0 0 0 0 0 0 0 0 0 0 0 0 0 0 0 0 0 0 0 0 0 0 0 0
0 0 0 0 0 0 0 0 0 0 0 0 0 0 0 0 0 0 0 0 0 0 0 0 0 0 0 0 0 0 0 0 0 0 0 0 0 0 0 0 0 0 0
0 0 0 0 0 0 0 0 0 0 0 0 0 0 0 0 0 0 0 0 0 0 0 0 0 0 0 0 0 0 0 0 0 0 0 0 0 0 0 0 0 0 0
0 0 0 0 0 0 0 0 0 0 0 0 0 0 0 0 0 0 0 0 0 0 0 0 0 0 0 0 0 0 0 0 0 0 0 0 0 0 0 0 0 0 0
0 0 0 0 0 0 0 0 0 0 0 0 0 0 0 0 0 0 0 0 0 0 0 0 0 0 0 0 0 0 0 0 0 0 0 0 0 0 0 0 0 0 0
0 0 0 0 0 0 0 0 0 0 0 0 0 0 0 0 0 0 0 0 0 0 0 0 0 0 0 0 0 0 0 0 0 0 0 0 0 0 0 0 0 0 0
0 0 0 0 0 0 0 0 0 0 0 0 0 0 0 0 0 0 0 0 0 0 0 0 0 0 0 0 0 0 0 0 0 0 0 0 0 0 0 0 0 0 0
0 0 0 0 0 0 0 0 0 0 0 0 0 0 0 0 0 0 0 0 0 0 0 0 0 0 0 0 0 0 0 0 0 0 0 0 0 0 0 0 0 0 0
0 0 0 0 0 0 0 0 0 0 0 0 0 0 0 0 0 0 0 0 0 0 0 0 0 0 0 0 0 0 0 0 0 0 0 0 0 0 0 0 0 0 0
0 0 0 0 0 0 0 0 0 0 0 0 0 0 0 0 0 0 0 0 0 0 0 0 0 0 0 0 0 0 0 0 0 0 0 0 0 0 0 0 0 0 0
0 0 0 0 0 0 0 0 0 0 0 0 0 0 0 0 0 0 0 0 0 0 0 0 0 0 0 0 0 0 0 0 0 0 0 0 0 0 0 0 0 0 0
0 0 0 0 0 0 0 0 0 0 0 0 0 0 0 0 0 0 0 0 0 0 0 0 0 0 0 0 0 0 0 0 0 0 0 0 0 0 0 0 0 0 0
0 0 0 0 0 0 0 0 0 0 0 0 0 0 0 0 0 0 0 0 0 0 0 0 0 0 0 0 0 0 0 0 0 0 0 0 0 0 0 0 0 0 0
0 0 0 0 0 0 0 0 0 0 0 0 0 0 0 0 0 0 0 0 0 0 0 0 0 0 0 0 0 0 0 0 0 0 0 0 0 0 0 0 0 0 0
0 0 0 0 0 0 0 0 0 0 0 0 0 0 0 0 0 0 0 0 0 0 0 0 0 0 0 0 0 0 0 0 0 0 0 0 0 0 0 0 0 0 0
0 0 0 0 0 0 0 0 0 0 0 0 0 0 0 0 0 0 0 0 0 0 0 0 0 0 0 0 0 0 0 0 0 0 0 0 0 0 0 0 0 0 0
0 0 0 0 0 0 0 0 0 0 0 0 0 0 0 0 0 0 0 0 0 0 0 0 0 0 0 0 0 0 0 0 0 0 0 0 0 0 0 0 0 0 0
0 0 0 0 0 0 0 0 0 0 0 0 0 0 0 0 0 0 0 0 0 0 0 0 0 0 0 0 0 0 0 0 0 0 0 0 0 0 0 0 0 0 0
0 0 0 0 0 0 0 0 0 0 0 0 0 0 0 0 0 0 0 0 0 0 0 0 0 0 0 0 0 0 0 0 0 0 0 0 0 0 0 0 0 0 0
Wind_Speed_500mb
32 34 32 40 39 28 25 26 22 18 20 21 23 20 20 19 19 22 23 24 26 27 29 30 31 32 35 36 37 43 48 54 54 63 73 78 68 68 59 49 54 72 59
33 31 32 34 37 32 29 24 21 20 21 18 17 21 19 16 15 14 17 25 23 25 29 31 32 33 37 36 35 39 49 55 54 60 68 50 77 43 71 81 67 66 70
35 34 35 35 39 36 31 28 27 27 25 22 21 23 20 20 22 16 20 22 24 26 28 30 32 34 37 39 41 44 47 53 58 51 47 39 28 92 68 69 71 68 78
36 34 39 41 39 35 32 29 28 25 21 21 21 21 19 15 20 19 19 17 19 22 25 28 32 34 38 41 44 46 49 53 62 62 57 56 66 64 82 75 72 80 73
37 38 36 34 33 30 28 27 24 20 16 13 13 11 10 9 10 10 13 16 20 25 28 32 36 39 42 44 48 51 53 55 60 61 63 63 67 66 63 100 107 90 79
43 40 36 31 30 27 25 23 17 13 9 7 6 6 4 3 6 10 14 17 20 24 28 32 37 41 45 48 51 54 56 57 60 63 66 64 58 63 65 73 94 94 100
47 44 42 43 39 34 27 21 15 10 8 7 5 3 3 6 10 12 15 18 21 24 30 35 39 44 48 52 57 60 62 63 66 67 69 70 62 60 65 71 86 88 96
51 50 48 44 37 31 25 19 15 12 9 5 4 5 6 6 8 12 16 22 28 34 37 41 45 50 54 59 63 66 67 70 71 72 71 72 73 72 71 68 73 86 89
58 53 46 40 36 30 25 20 16 13 8 6 5 3 2 5 8 13 20 27 33 39 43 49 54 57 60 64 69 74 75 77 78 79 78 75 76 75 74 75 73 69 80
60 53 48 43 36 30 24 21 18 11 7 9 7 3 5 8 12 18 25 32 39 45 50 55 59 64 67 71 76 80 82 85 86 84 84 82 79 80 79 79 77 77 75
63 57 49 41 33 30 27 25 20 12 11 11 7 7 10 14 20 26 32 39 45 53 58 62 67 72 76 78 82 84 85 88 90 89 85 86 81 84 84 81 79 79 76
62 56 49 44 40 34 30 29 24 15 13 14 12 12 16 20 25 32 38 47 54 58 62 67 72 77 80 82 84 87 85 88 91 90 87 87 83 84 82 80 81 78 75
61 57 53 48 41 35 31 30 26 21 17 16 15 16 21 28 32 38 45 53 60 61 63 70 75 80 84 88 87 86 88 89 91 90 89 88 83 86 82 78 78 75 72
65 64 59 51 42 35 32 30 30 28 22 18 18 20 26 32 39 45 53 59 61 66 70 75 81 84 88 90 93 93 95 96 94 89 87 87 83 81 78 74 71 66 62
73 71 65 57 47 41 35 34 34 33 29 25 24 26 32 39 46 52 59 61 65 70 76 82 86 91 93 91 93 93 93 93 93 89 85 80 77 73 67 59 62 63 65
85 80 74 63 56 47 39 32 33 33 32 32 30 33 39 45 52 58 61 64 70 76 83 88 92 92 91 88 85 84 85 83 82 84 80 73 73 66 60 54 50 49 54
86 91 81 73 63 51 38 31 32 32 32 31 33 37 43 49 56 59 62 69 77 84 90 92 90 89 85 84 81 76 72 74 72 69 69 71 68 67 65 58 52 48 44
72 89 90 78 65 47 38 34 35 33 30 30 33 40 46 54 57 60 67 74 83 89 91 89 84 84 83 80 75 69 70 68 66 66 66 65 67 64 58 53 52 53 48
57 63 78 79 63 48 39 34 35 30 29 31 34 41 50 55 58 64 72 80 88 88 86 84 85 84 79 73 68 63 67 70 70 63 63 59 58 56 55 52 53 55 53
45 44 53 70 57 44 39 35 32 27 28 31 36 43 50 55 60 67 76 82 82 83 83 84 80 76 75 71 63 58 63 71 68 69 65 60 52 48 44 53 54 56 52
38 35 40 51 48 42 36 32 26 26 28 31 37 44 48 53 61 70 74 76 79 80 81 79 77 74 73 70 64 57 60 65 70 68 64 59 50 47 53 49 51 46 46
34 31 36 42 43 38 34 28 26 25 27 32 38 42 46 53 63 68 69 71 75 76 75 75 76 76 75 74 69 61 63 61 62 61 62 57 53 43 43 48 46 37 35
30 33 38 43 39 35 30 24 23 24 27 33 36 40 46 54 59 61 64 67 66 66 67 70 76 79 76 78 80 76 69 61 58 54 53 45 41 36 47 46 42 36 33
33 38 41 39 38 32 23 22 23 25 28 30 33 40 48 52 51 54 58 56 56 57 59 63 67 68 72 74 72 73 66 62 54 45 36 32 37 40 40 41 39 36 35
37 37 36 35 30 25 24 24 24 25 27 29 34 41 45 45 47 47 49 45 39 42 45 48 48 54 61 69 61 54 59 55 46 36 39 42 44 46 46 43 41 39 36
34 38 37 32 27 25 24 25 24 24 26 30 35 38 38 39 40 36 29 29 30 33 37 38 47 49 47 50 52 51 50 48 43 44 49 51 51 51 50 50 48 46 43
Wind_Direction_500mb
217 217 222 217 221 226 236 234 233 252 262 273 278 282 293 298 308 309 312 320 325 335 338 338 334 335 331 330 327 320 317 315 319 318 318 315 320 316 321 320 305 312 311
217 216 211 210 216 224 227 225 245 251 259 261 261 274 291 295 302 307 310 310 316 316 323 324 327 327 322 322 319 314 314 314 321 320 321 320 314 318 308 308 310 305 309
213 209 206 206 211 215 222 227 236 244 256 253 252 262 272 279 285 300 315 319 325 326 325 329 330 328 323 323 320 318 316 313 315 317 309 318 302 316 318 305 305 308 304
207 207 204 206 209 214 217 227 236 247 248 246 250 260 270 276 287 319 327 333 335 332 330 330 329 328 325 324 321 319 315 311 308 308 306 299 302 305 312 308 301 301 299
206 201 197 198 201 204 214 229 232 228 232 246 254 263 275 280 299 317 327 334 330 329 333 334 335 333 330 328 324 322 318 314 309 307 303 299 298 294 285 293 303 300 298
202 199 190 190 194 188 181 180 180 188 200 218 232 233 239 272 306 314 322 334 341 344 342 343 341 339 336 332 329 324 321 318 312 309 306 300 292 291 291 287 292 296 301
188 187 179 171 167 164 166 171 177 190 192 194 198 222 274 305 317 337 351 353 350 350 346 341 338 336 333 329 324 321 320 317 313 311 309 306 298 291 289 291 292 295 297
179 177 172 168 165 168 173 180 184 189 187 198 246 290 311 330 346 350 351 346 345 342 337 333 332 330 327 323 319 316 315 313 312 311 309 309 309 307 302 288 285 290 290
178 177 174 171 174 178 181 184 187 184 192 228 237 236 312 341 336 336 336 334 332 330 329 328 327 325 321 318 315 313 312 310 309 308 307 307 307 307 304 298 291 283 290
179 178 177 178 178 180 183 187 184 186 213 211 206 234 288 302 314 321 322 325 327 325 325 325 322 320 319 318 314 312 311 309 309 308 308 308 307 303 301 299 297 290 281
181 179 180 181 183 187 192 195 195 206 218 210 216 261 288 306 316 318 320 322 324 325 325 323 321 321 319 318 314 312 309 307 305 306 306 305 306 302 301 300 298 294 288
183 183 184 187 190 195 200 202 206 218 231 230 242 272 296 305 309 313 318 322 323 323 323 321 320 319 318 317 316 313 311 308 307 308 307 306 305 302 302 302 299 296 292
189 188 192 196 200 202 205 212 216 228 239 243 255 278 292 299 306 312 317 319 320 321 320 320 320 320 320 318 317 314 312 310 308 308 307 306 307 305 305 304 301 298 294
198 198 202 205 208 210 215 220 224 232 247 256 265 279 290 302 310 316 319 320 320 320 321 320 320 320 319 318 316 314 312 310 310 308 307 309 309 308 309 308 303 297 293
206 207 209 211 214 217 219 224 226 236 248 262 273 284 296 307 314 317 319 319 320 321 320 320 321 321 321 322 320 317 315 312 311 310 312 313 312 310 310 307 302 297 295
213 213 214 216 220 222 225 232 233 239 252 263 278 289 297 308 314 318 319 319 319 318 321 323 324 325 325 325 324 323 318 316 315 317 316 317 318 321 319 312 302 295 292
219 218 216 218 221 224 228 240 237 238 252 265 279 289 300 310 315 318 317 318 320 322 325 328 329 329 331 331 331 327 322 321 324 326 326 324 325 326 323 321 320 311 301
227 224 219 220 223 225 226 231 229 240 257 272 282 291 304 311 314 317 318 321 323 327 329 330 332 332 334 335 334 331 327 328 330 329 328 326 324 330 328 325 320 318 316
242 234 223 222 224 223 224 229 229 243 260 274 286 300 308 313 315 318 323 326 327 329 330 332 333 335 336 338 339 335 335 332 332 336 338 332 326 328 332 324 319 317 317
241 239 225 220 221 219 222 227 230 244 263 277 294 304 312 314 318 324 327 328 328 330 332 332 336 337 339 344 340 337 332 329 332 335 335 336 332 329 333 330 320 310 313
222 223 222 217 217 216 219 218 229 249 269 288 303 310 312 316 323 326 326 329 331 332 334 336 340 344 347 345 342 339 332 329 329 330 337 339 338 334 331 324 328 325 319
211 211 208 205 203 206 211 218 238 261 281 297 306 307 314 321 325 326 328 331 333 335 339 343 348 353 355 354 350 339 334 330 326 329 335 335 340 337 335 333 333 333 322
199 198 197 191 192 198 209 231 252 272 289 299 304 312 320 325 326 328 333 338 339 343 347 353 356 357 1 358 354 350 346 341 337 338 340 342 344 344 343 347 347 341 337
178 179 183 191 195 199 222 246 263 276 288 299 309 318 322 325 328 336 340 346 347 350 357 1 1 1 3 357 357 3 1 1 0 359 1 10 2 358 2 2 4 1 359
187 191 194 192 197 215 233 251 263 280 295 305 315 320 325 329 338 348 350 359 0 4 7 7 2 2 360 3 3 1 2 12 19 18 18 21 22 21 20 20 17 15 14
186 188 192 202 213 228 241 253 270 288 298 306 316 324 329 339 347 356 18 16 23 23 18 12 8 7 4 3 10 13 13 16 24 31 37 36 34 31 28 27 28 29 28
Wind_Speed_850mb
32 34 32 40 39 28 25 26 22 18 20 21 23 20 20 19 19 22 23 24 26 27 29 30 31 32 35 36 37 43 48 54 54 63 73 78 68 68 59 49 54 72 59
33 31 32 34 37 32 29 24 21 20 21 18 17 21 19 16 15 14 17 25 23 25 29 31 32 33 37 36 35 39 49 55 54 60 68 50 77 43 71 81 67 66 70
35 34 35 35 39 36 31 28 27 27 25 22 21 23 20 20 22 16 20 22 24 26 28 30 32 34 37 39 41 44 47 53 58 51 47 39 28 92 68 69 71 68 78
36 34 39 41 39 35 32 29 28 25 21 21 21 21 19 15 20 19 19 17 19 22 25 28 32 34 38 41 44 46 49 53 62 62 57 56 66 64 82 75 72 80 73
37 38 36 34 33 30 28 27 24 20 16 13 13 11 10 9 10 10 13 16 20 25 28 32 36 39 42 44 48 51 53 55 60 61 63 63 67 66 63 100 107 90 79
43 40 36 31 30 27 25 23 17 13 9 7 6 6 4 3 6 10 14 17 20 24 28 32 37 41 45 48 51 54 56 57 60 63 66 64 58 63 65 73 94 94 100
47 44 42 43 39 34 27 21 15 10 8 7 5 3 3 6 10 12 15 18 21 24 30 35 39 44 48 52 57 60 62 63 66 67 69 70 62 60 65 71 86 88 96
51 50 48 44 37 31 25 19 15 12 9 5 4 5 6 6 8 12 16 22 28 34 37 41 45 50 54 59 63 66 67 70 71 72 71 72 73 72 71 68 73 86 89
58 53 46 40 36 30 25 20 16 13 8 6 5 3 2 5 8 13 20 27 33 39 43 49 54 57 60 64 69 74 75 77 78 79 78 75 76 75 74 75 73 69 80
60 53 48 43 36 30 24 21 18 11 7 9 7 3 5 8 12 18 25 32 39 45 50 55 59 64 67 71 76 80 82 85 86 84 84 82 79 80 79 79 77 77 75
63 57 49 41 33 30 27 25 20 12 11 11 7 7 10 14 20 26 32 39 45 53 58 62 67 72 76 78 82 84 85 88 90 89 85 86 81 84 84 81 79 79 76
62 56 49 44 40 34 30 29 24 15 13 14 12 12 16 20 25 32 38 47 54 58 62 67 72 77 80 82 84 87 85 88 91 90 87 87 83 84 82 80 81 78 75
61 57 53 48 41 35 31 30 26 21 17 16 15 16 21 28 32 38 45 53 60 61 63 70 75 80 84 88 87 86 88 89 91 90 89 88 83 86 82 78 78 75 72
65 64 59 51 42 35 32 30 30 28 22 18 18 20 26 32 39 45 53 59 61 66 70 75 81 84 88 90 93 93 95 96 94 89 87 87 83 81 78 74 71 66 62
73 71 65 57 47 41 35 34 34 33 29 25 24 26 32 39 46 52 59 61 65 70 76 82 86 91 93 91 93 93 93 93 93 89 85 80 77 73 67 59 62 63 65
85 80 74 63 56 47 39 32 33 33 32 32 30 33 39 45 52 58 61 64 70 76 83 88 92 92 91 88 85 84 85 83 82 84 80 73 73 66 60 54 50 49 54
86 91 81 73 63 51 38 31 32 32 32 31 33 37 43 49 56 59 62 69 77 84 90 92 90 89 85 84 81 76 72 74 72 69 69 71 68 67 65 58 52 48 44
72 89 90 78 65 47 38 34 35 33 30 30 33 40 46 54 57 60 67 74 83 89 91 89 84 84 83 80 75 69 70 68 66 66 66 65 67 64 58 53 52 53 48
57 63 78 79 63 48 39 34 35 30 29 31 34 41 50 55 58 64 72 80 88 88 86 84 85 84 79 73 68 63 67 70 70 63 63 59 58 56 55 52 53 55 53
45 44 53 70 57 44 39 35 32 27 28 31 36 43 50 55 60 67 76 82 82 83 83 84 80 76 75 71 63 58 63 71 68 69 65 60 52 48 44 53 54 56 52
38 35 40 51 48 42 36 32 26 26 28 31 37 44 48 53 61 70 74 76 79 80 81 79 77 74 73 70 64 57 60 65 70 68 64 59 50 47 53 49 51 46 46
34 31 36 42 43 38 34 28 26 25 27 32 38 42 46 53 63 68 69 71 75 76 75 75 76 76 75 74 69 61 63 61 62 61 62 57 53 43 43 48 46 37 35
30 33 38 43 39 35 30 24 23 24 27 33 36 40 46 54 59 61 64 67 66 66 67 70 76 79 76 78 80 76 69 61 58 54 53 45 41 36 47 46 42 36 33
33 38 41 39 38 32 23 22 23 25 28 30 33 40 48 52 51 54 58 56 56 57 59 63 67 68 72 74 72 73 66 62 54 45 36 32 37 40 40 41 39 36 35
37 37 36 35 30 25 24 24 24 25 27 29 34 41 45 45 47 47 49 45 39 42 45 48 48 54 61 69 61 54 59 55 46 36 39 42 44 46 46 43 41 39 36
34 38 37 32 27 25 24 25 24 24 26 30 35 38 38 39 40 36 29 29 30 33 37 38 47 49 47 50 52 51 50 48 43 44 49 51 51 51 50 50 48 46 43
Wind_Direction_850mb
217 217 222 217 221 226 236 234 233 252 262 273 278 282 293 298 308 309 312 320 325 335 338 338 334 335 331 330 327 320 317 315 319 318 318 315 320 316 321 320 305 312 311
217 216 211 210 216 224 227 225 245 251 259 261 261 274 291 295 302 307 310 310 316 316 323 324 327 327 322 322 319 314 314 314 321 320 321 320 314 318 308 308 310 305 309
213 209 206 206 211 215 222 227 236 244 256 253 252 262 272 279 285 300 315 319 325 326 325 329 330 328 323 323 320 318 316 313 315 317 309 318 302 316 318 305 305 308 304
207 207 204 206 209 214 217 227 236 247 248 246 250 260 270 276 287 319 327 333 335 332 330 330 329 328 325 324 321 319 315 311 308 308 306 299 302 305 312 308 301 301 299
206 201 197 198 201 204 214 229 232 228 232 246 254 263 275 280 299 317 327 334 330 329 333 334 335 333 330 328 324 322 318 314 309 307 303 299 298 294 285 293 303 300 298
202 199 190 190 194 188 181 180 180 188 200 218 232 233 239 272 306 314 322 334 341 344 342 343 341 339 336 332 329 324 321 318 312 309 306 300 292 291 291 287 292 296 301
188 187 179 171 167 164 166 171 177 190 192 194 198 222 274 305 317 337 351 353 350 350 346 341 338 336 333 329 324 321 320 317 313 311 309 306 298 291 289 291 292 295 297
179 177 172 168 165 168 173 180 184 189 187 198 246 290 311 330 346 350 351 346 345 342 337 333 332 330 327 323 319 316 315 313 312 311 309 309 309 307 302 288 285 290 290
178 177 174 171 174 178 181 184 187 184 192 228 237 236 312 341 336 336 336 334 332 330 329 328 327 325 321 318 315 313 312 310 309 308 307 307 307 307 304 298 291 283 290
179 178 177 178 178 180 183 187 184 186 213 211 206 234 288 302 314 321 322 325 327 325 325 325 322 320 319 318 314 312 311 309 309 308 308 308 307 303 301 299 297 290 281
181 179 180 181 183 187 192 195 195 206 218 210 216 261 288 306 316 318 320 322 324 325 325 323 321 321 319 318 314 312 309 307 305 306 306 305 306 302 301 300 298 294 288
183 183 184 187 190 195 200 202 206 218 231 230 242 272 296 305 309 313 318 322 323 323 323 321 320 319 318 317 316 313 311 308 307 308 307 306 305 302 302 302 299 296 292
189 188 192 196 200 202 205 212 216 228 239 243 255 278 292 299 306 312 317 319 320 321 320 320 320 320 320 318 317 314 312 310 308 308 307 306 307 305 305 304 301 298 294
198 198 202 205 208 210 215 220 224 232 247 256 265 279 290 302 310 316 319 320 320 320 321 320 320 320 319 318 316 314 312 310 310 308 307 309 309 308 309 308 303 297 293
206 207 209 211 214 217 219 224 226 236 248 262 273 284 296 307 314 317 319 319 320 321 320 320 321 321 321 322 320 317 315 312 311 310 312 313 312 310 310 307 302 297 295
213 213 214 216 220 222 225 232 233 239 252 263 278 289 297 308 314 318 319 319 319 318 321 323 324 325 325 325 324 323 318 316 315 317 316 317 318 321 319 312 302 295 292
219 218 216 218 221 224 228 240 237 238 252 265 279 289 300 310 315 318 317 318 320 322 325 328 329 329 331 331 331 327 322 321 324 326 326 324 325 326 323 321 320 311 301
227 224 219 220 223 225 226 231 229 240 257 272 282 291 304 311 314 317 318 321 323 327 329 330 332 332 334 335 334 331 327 328 330 329 328 326 324 330 328 325 320 318 316
242 234 223 222 224 223 224 229 229 243 260 274 286 300 308 313 315 318 323 326 327 329 330 332 333 335 336 338 339 335 335 332 332 336 338 332 326 328 332 324 319 317 317
241 239 225 220 221 219 222 227 230 244 263 277 294 304 312 314 318 324 327 328 328 330 332 332 336 337 339 344 340 337 332 329 332 335 335 336 332 329 333 330 320 310 313
222 223 222 217 217 216 219 218 229 249 269 288 303 310 312 316 323 326 326 329 331 332 334 336 340 344 347 345 342 339 332 329 329 330 337 339 338 334 331 324 328 325 319
211 211 208 205 203 206 211 218 238 261 281 297 306 307 314 321 325 326 328 331 333 335 339 343 348 353 355 354 350 339 334 330 326 329 335 335 340 337 335 333 333 333 322
199 198 197 191 192 198 209 231 252 272 289 299 304 312 320 325 326 328 333 338 339 343 347 353 356 357 1 358 354 350 346 341 337 338 340 342 344 344 343 347 347 341 337
178 179 183 191 195 199 222 246 263 276 288 299 309 318 322 325 328 336 340 346 347 350 357 1 1 1 3 357 357 3 1 1 0 359 1 10 2 358 2 2 4 1 359
187 191 194 192 197 215 233 251 263 280 295 305 315 320 325 329 338 348 350 359 0 4 7 7 2 2 360 3 3 1 2 12 19 18 18 21 22 21 20 20 17 15 14
186 188 192 202 213 228 241 253 270 288 298 306 316 324 329 339 347 356 18 16 23 23 18 12 8 7 4 3 10 13 13 16 24 31 37 36 34 31 28 27 28 29 28